Regional Weather Roundup
Issued by NWS

Home | Current Version | Previous Version | Graphics & Text | Print | Product List | Glossary Off
Versions: 1 2 3 4 5 6 7 8 9 10 11 12 13 14 15 16 17 18 19 20 21 22 23 24 25 26 27 28 29 30 31 32 33 34 35 36 37 38 39 40 41 42 43 44 45 46 47 48 49 50

000
ASUS43 KDMX 301704
RWRIA

WEATHER ROUNDUP FOR IOWA
NATIONAL WEATHER SERVICE DES MOINES IA
  ISSUED BY NWS QUAD CITIES IA IL
1100 AM CST FRI JAN 30 2015

NOTE: "FAIR" INDICATES FEW OR NO CLOUDS BELOW 12,000 FEET WITH NO
SIGNIFICANT WEATHER AND/OR OBSTRUCTIONS TO VISIBILITY.

* - THESE STATIONS ARE NOT NWS STATIONS...THUS NOT UNDER NWS
QUALITY CONTROL.  THEY ALSO DO NOT REPORT WEATHER SUCH
AS PRECIPITATION OR FOG.

IAZ001>003-012>014-020>022-031>034-043>046-301800-
   NORTHWEST IOWA

CITY           SKY/WX    TMP DP  RH WIND       PRES   REMARKS
CARROLL *      SUNNY     23  16  74 S8        30.51F WCI  14
CHEROKEE *     SUNNY     23  18  83 S8        30.48F WCI  14
DENNISON *     MOSUNNY   25  18  74 S8        30.49F WCI  16
LE MARS *      MOSUNNY   27  21  80 S12       30.48F WCI  16
ORANGE CITY *  MOSUNNY   25  19  80 S14       30.43F WCI  13
SIOUX CITY     SUNNY     27  21  78 S12       30.49F WCI  17
SPENCER        SUNNY     23  16  74 S13       30.46F WCI  11
$$

IAZ055>058-069>071-079>083-090>094-301800-
   SOUTHWEST IOWA

CITY           SKY/WX    TMP DP  RH WIND       PRES   REMARKS
ATLANTIC *     SUNNY     25  18  74 SE7       30.52F WCI  17
AUDUBON *      SUNNY     25  18  74 S7        30.52F WCI  17
CLARINDA *     SUNNY     28  19  69 S6        30.57S WCI  22
COUNCIL BLFS * MOSUNNY   27  21  80 S9        30.51F WCI  17
CRESTON *      SUNNY     25  18  74 SE6       30.53F WCI  18
HARLAN *       SUNNY     25  19  80 S8        30.55F WCI  16
LAMONI         SUNNY     24  18  77 SE3       30.54S
$$

IAZ047>049-059>061-072>074-084-301800-
   CENTRAL IOWA

CITY           SKY/WX    TMP DP  RH WIND       PRES   REMARKS
AMES           SUNNY     22  14  71 S6        30.55S WCI  14
ANKENY *       SUNNY     23  14  68 SE6       30.56S WCI  16
BOONE *        SUNNY     23  16  74 VRB6      30.52F WCI  16
CHARITON *     SUNNY     23  16  74 CALM      30.55S
DES MOINES     MOSUNNY   24  13  62 SW3       30.56S
GRINNELL *     SUNNY     21  11  65 CALM      30.55S
KNOXVILLE *    SUNNY     23  12  63 CALM      30.54F
MARSHALLTOWN   SUNNY     20   9  62 CALM      30.53F
PELLA *        SUNNY     26  14  58 CALM      30.57F
PERRY *          N/A     24  18  78 S6        30.54F WCI  17
$$

IAZ004>006-015-016-023>025-035-036-301800-
   NORTH CENTRAL IOWA

CITY           SKY/WX    TMP DP  RH WIND       PRES   REMARKS
ALGONA *       SUNNY     21  16  79 S14       30.49F WCI   8
CLARION *      SUNNY     21  16  79 S12       30.51F WCI   9
ESTHERVILLE    SUNNY     20  13  74 S13       30.46F WCI   7
FORT DODGE *   SUNNY     23  16  74 S9        30.52F WCI  13
MASON CITY     SUNNY     20  14  77 S10       30.51F WCI   9
WEBSTER CITY * SUNNY     23  18  80 S9        30.51F WCI  13
IOWA FALLS *   FAIR      22  12  65 S3        30.53F
$$

IAZ007>011-017>019-026>030-037>042-050>054-066-301800-
   NORTHEAST IOWA

CITY           SKY/WX    TMP DP  RH WIND       PRES   REMARKS
CEDAR RAPIDS   SUNNY     22  13  68 S6        30.53F WCI  14
CHARLES CITY * MOSUNNY   19   9  63 SE3       30.52F
CLINTON *      SUNNY     21  12  68 CALM      30.57F
DECORAH *      MOSUNNY   16   7  67 VRB5      30.50F WCI   9
DUBUQUE        MOSUNNY   21  10  62 NE5       30.52F WCI  15
MONTICELLO *   MOSUNNY   23  12  63 MISG      30.54S
OELWEIN *      MOSUNNY   19   9  63 CALM      30.54S
WATERLOO       SUNNY     19   8  62 S3        30.54S
$$

IAZ064-065-067-068-078-301800-
   EAST CENTRAL IOWA

CITY           SKY/WX    TMP DP  RH WIND       PRES   REMARKS
DAVENPORT      SUNNY     23  12  62 E6        30.54F WCI  16
IOWA CITY      SUNNY     24  14  65 SE5       30.57F WCI  18
MT. PLEASANT * SUNNY     26  15  62 E3        30.57S
MUSCATINE *    SUNNY     27  14  59 CALM      30.57F
QUAD CITIES    SUNNY     24  11  57 E3        30.54F
$$

IAZ062-063-075>077-085>089-095>099-301800-
   SOUTHEAST IOWA

CITY           SKY/WX    TMP DP  RH WIND       PRES   REMARKS
BURLINGTON     SUNNY     26  15  63 VRB5      30.56S WCI  20
FAIRFIELD *    SUNNY     25  14  63 CALM      30.56F
FORT MADISON * SUNNY     27  16  63 CALM      30.57S
KEOKUK *       SUNNY     28  16  59 CALM      30.56S
OTTUMWA        SUNNY     25  13  60 E3        30.55S
WASHINGTON *   SUNNY     25  18  74 VRB3      30.56F
$$

ABBREVIATIONS USED IN REMARKS
   TC - TEMPERATURES IN CELSIUS
  WCI - WIND CHILL INDEX
   HX - HEAT INDEX
  VSB - VISIBILITY
$$



USA.gov is the U.S. government's official web portal to all federal, state and local government web resources and services.